This demonstration page uses our WeatherBlox Daily Observations layout. Learn more.

36.17497, -115.13722

Hourly Observations for February 24, 2016

Temp ( °F °C ) Dew Point ( °F °C ) Humidity (%) Winds ( mph kmh ) Pressure ( in mb ) Visibility ( mi km ) Precip ( " mm )
12:53 am 00:53 Clear 45 7.2 17 -8.3 33 33 N 7 11 30.31 1027 10 16.0934 0 0
1:53 am 01:53 Clear 43 6.1 15 -9.4 32 32 NNW 6 9 30.31 1026 10 16.0934 0 0
2:53 am 02:53 Clear 44 6.7 17 -8.3 34 34 WNW 6 9 30.3 1026 10 16.0934 0 0
3:53 am 03:53 Clear 44 6.7 18 -7.8 35 35 WNW 5 7 30.31 1026 10 16.0934 0 0
4:53 am 04:53 Clear 43 6.1 17 -8.3 35 35 NW 6 9 30.32 1027 10 16.0934 0 0
5:53 am 05:53 Clear 42 5.6 17 -8.3 36 36 Calm 30.34 1027 10 16.0934 0 0
6:53 am 06:53 Sunny 42 5.6 19 -7.2 40 40 NW 6 9 30.35 1028 10 16.0934 0 0
7:53 am 07:53 Sunny 49 9.4 16 -8.9 27 27 Calm 30.35 1028 10 16.0934 0 0
8:53 am 08:53 Sunny 52 11.1 17 -8.3 25 25 Calm 30.36 1028 10 16.0934 0 0
9:53 am 09:53 Sunny 57 13.9 16 -8.9 20 20 Calm 30.35 1028 10 16.0934 0 0
10:53 am 10:53 Sunny 58 14.4 15 -9.4 18 18 ESE 5 7 30.34 1027 10 16.0934 0 0
11:53 am 11:53 Sunny 61 16.1 16 -8.9 17 17 VRB 5 7 30.3 1026 10 16.0934 0 0
12:53 pm 12:53 Sunny 63 17 16 -9 16 16 Calm 30.15 1021 10 16.0934 0 0
1:53 pm 13:53 Sunny 63 17.2 15 -9.4 15 15 ESE 7 11 30.24 1024 10 16.0934 0 0
2:53 pm 14:53 Sunny 64 17.8 15 -9.4 15 15 Calm 30.22 1023 10 16.0934 0 0
3:53 pm 15:53 Sunny 64 17.8 15 -9.4 15 15 S 3 6 30.2 1023 10 16.0934 0 0
4:53 pm 16:53 Sunny 64 17.8 15 -9.4 15 15 ESE 5 7 30.19 1022 10 16.0934 0 0
5:53 pm 17:53 Clear 62 16.7 15 -9.4 16 16 Calm 30.2 1023 10 16.0934 0 0
6:53 pm 18:53 Clear 61 16.1 15 -9.4 17 17 Calm 30.21 1023 10 16.0934 0 0
7:53 pm 19:53 Clear 57 13.9 19 -7.2 23 23 NW 7 11 30.22 1023 10 16.0934 0 0
8:53 pm 20:53 Clear 54 12.2 20 -6.7 26 26 NW 7 11 30.22 1023 10 16.0934 0 0
9:53 pm 21:53 Clear 52 11.1 19 -7.2 27 27 NW 7 11 30.21 1023 10 16.0934 0 0
10:53 pm 22:53 Clear 52 11.1 19 -7.2 27 27 NW 6 9 30.21 1023 10 16.0934 0 0
11:53 pm 23:53 Clear 52 11.1 21 -6.1 30 30 Calm 30.21 1023 10 16.0934 0 0

Powered by AerisWeather